Latest Coastal Weather Observations for Wilsons Promontory

IDT60701

Issued at 5:32 pm EST Friday 28 August 2015 (issued every 10 minutes, with the page automatically refreshed every 10 minutes)

About coastal observations | Map of coastal stations | Coastal observations for TAS | Marine services | Other Formats
Station Details ID: 085096 Name: WILSONS PROMONTORY LIGHTHOUSE Lat: -39.13 Lon: 146.42 Height: 95.0 m
Data from the previous 72 hours. | See also: Recent months at Wilsons Promontory
Date/Time
EST
Temp

°C
Wind Pressure Rain
since 9am
mm
Weather Cloud Vis
km
Sea
Height
m
Swell
Dir
 
Speed
knots
Gust
knots
hPa Trend Height
m
Period
s
Dir
28/05:30pm 9.2 - - - 1023.5 - 0.0 - - - - - - -
28/05:00pm 9.4 - - - 1023.3 - 0.0 - - - - - - -
28/04:30pm 9.5 - - - 1023.2 - 0.0 - - - - - - -
28/04:00pm 9.6 - - - 1023.2 - 0.0 - - - - - - -
28/03:30pm 9.3 - - - 1023.1 - 0.0 - - - - - - -
28/03:00pm 10.3 - - - 1022.9 - 0.0 - - - - - - -
28/02:30pm 11.0 - - - 1022.7 - 0.0 - - - - - - -
28/02:00pm 10.8 - - - 1022.8 - 0.0 - - - - - - -
28/01:30pm 10.8 - - - 1022.7 - 0.0 - - - - - - -
28/01:00pm 10.9 - - - 1022.8 - 0.0 - - - - - - -
28/12:30pm 10.8 - - - 1023.1 - 0.0 - - - - - - -
28/12:00pm 11.0 - - - 1023.6 - 0.0 - - - - - - -
28/11:30am 11.0 - - - 1023.5 - 0.0 - - - - - - -
28/11:00am 11.2 - - - 1023.5 - 0.0 - - - - - - -
28/10:30am 11.0 - - - 1023.6 - 0.0 - - - - - - -
28/10:00am 10.5 - - - 1023.4 - 0.0 - - - - - - -
28/09:30am 10.5 - - - 1023.2 - 0.0 - - - - - - -
28/09:00am 10.0 - - - 1023.5 - 3.4 - - - - - - -
28/08:30am 9.6 - - - 1023.2 - 3.2 - - - - - - -
28/08:00am 9.1 - - - 1023.1 - 2.4 - - - - - - -
28/07:30am 10.3 - - - 1022.6 - 2.0 - - - - - - -
28/07:00am 10.3 - - - 1022.2 - 2.0 - - - - - - -
28/06:30am 10.3 - - - 1021.9 - 2.0 - - - - - - -
28/06:00am 10.5 - - - 1021.7 - 1.8 - - - - - - -
28/05:30am 10.8 - - - 1021.2 - 1.0 - - - - - - -
28/05:00am 10.9 - - - 1020.8 - 0.4 - - - - - - -
28/04:30am 10.8 - - - 1020.6 - 0.4 - - - - - - -
28/04:00am 10.5 - - - 1020.4 - 0.4 - - - - - - -
28/03:30am 10.4 - - - 1020.3 - 0.4 - - - - - - -
28/03:00am 10.4 - - - 1020.4 - 0.4 - - - - - - -
28/02:30am 10.5 - - - 1020.5 - 0.4 - - - - - - -
28/02:00am 10.7 - - - 1020.6 - 0.4 - - - - - - -
28/01:30am 10.7 - - - 1020.7 - 0.4 - - - - - - -
28/01:00am 10.8 - - - 1020.7 - 0.4 - - - - - - -
28/12:30am 10.8 - - - 1020.6 - 0.4 - - - - - - -
28/12:00am 11.0 - - - 1020.7 - 0.4 - - - - - - -
 
Date/Time
EST
Temp

°C
Wind Pressure Rain
since 9am
mm
Weather Cloud Vis
km
Sea
Height
m
Swell
Dir
 
Speed
knots
Gust
knots
hPa Trend Height
m
Period
s
Dir
27/11:30pm 11.0 - - - 1020.7 - 0.4 - - - - - - -
27/11:00pm 11.0 - - - 1020.5 - 0.4 - - - - - - -
27/10:30pm 10.9 - - - 1020.6 - 0.4 - - - - - - -
27/10:00pm 10.7 - - - 1020.7 - 0.4 - - - - - - -
27/09:30pm 10.6 - - - 1020.8 - 0.4 - - - - - - -
27/09:00pm 10.8 - - - 1020.8 - 0.4 - - - - - - -
27/08:30pm 11.0 - - - 1020.5 - 0.4 - - - - - - -
27/08:00pm 11.0 - - - 1020.4 - 0.4 - - - - - - -
27/07:30pm 11.0 - - - 1020.2 - 0.4 - - - - - - -
27/07:00pm 11.1 - - - 1020.1 - 0.4 - - - - - - -
27/06:30pm 11.1 - - - 1020.0 - 0.4 - - - - - - -
27/06:00pm 11.2 - - - 1019.8 - 0.4 - - - - - - -
27/05:30pm 11.2 - - - 1019.6 - 0.4 - - - - - - -
27/05:00pm 11.2 - - - 1019.2 - 0.4 - - - - - - -
27/04:30pm 11.3 - - - 1019.0 - 0.4 - - - - - - -
27/04:00pm 11.5 - - - 1018.6 - 0.4 - - - - - - -
27/03:30pm 11.5 - - - 1018.6 - 0.4 - - - - - - -
27/03:00pm 11.6 - - - 1018.8 - 0.4 - - - - - - -
27/02:30pm 11.6 - - - 1018.5 - 0.4 - - - - - - -
27/02:00pm 11.8 - - - 1018.7 - 0.4 - - - - - - -
27/01:30pm 11.9 - - - 1018.9 - 0.4 - - - - - - -
27/01:00pm 11.8 - - - 1019.0 - 0.4 - - - - - - -
27/12:30pm 12.0 - - - 1019.1 - 0.4 - - - - - - -
27/12:00pm 11.7 - - - 1019.5 - 0.4 - - - - - - -
27/11:30am 11.8 - - - 1019.9 - 0.4 - - - - - - -
27/11:00am 12.1 - - - 1020.2 - 0.4 - - - - - - -
27/10:30am 12.0 - - - 1020.4 - 0.4 - - - - - - -
27/10:00am 11.7 - - - 1020.6 - 0.4 - - - - - - -
27/09:30am 11.6 - - - 1020.8 - 0.4 - - - - - - -
27/09:00am 11.5 - - - 1021.2 - 7.2 - - - - - - -
27/08:30am 11.5 - - - 1021.2 - 6.6 - - - - - - -
27/08:00am 11.5 - - - 1021.0 - 6.0 - - - - - - -
27/07:30am 11.4 - - - 1020.6 - 2.2 - - - - - - -
27/07:00am 11.3 - - - 1020.4 - 2.0 - - - - - - -
27/06:30am 11.2 - - - 1020.3 - 1.8 - - - - - - -
27/06:00am 11.2 - - - 1020.3 - 1.8 - - - - - - -
27/05:30am 11.1 - - - 1020.3 - 1.8 - - - - - - -
27/05:00am 11.1 - - - 1020.3 - 1.6 - - - - - - -
27/04:30am 11.1 - - - 1020.4 - 1.4 - - - - - - -
27/04:00am 11.0 - - - 1020.5 - 1.0 - - - - - - -
27/03:30am 10.8 - - - 1020.6 - 1.0 - - - - - - -
27/03:00am 11.0 - - - 1021.3 - 1.0 - - - - - - -
27/02:30am 11.0 - - - 1021.5 - 1.0 - - - - - - -
27/02:00am 11.2 - - - 1021.7 - 0.8 - - - - - - -
27/01:30am 11.2 - - - 1021.9 - 0.8 - - - - - - -
27/01:00am 11.2 - - - 1022.2 - 0.8 - - - - - - -
27/12:30am 11.2 - - - 1022.6 - 0.8 - - - - - - -
27/12:00am 11.2 - - - 1023.0 - 0.8 - - - - - - -
 
Date/Time
EST
Temp

°C
Wind Pressure Rain
since 9am
mm
Weather Cloud Vis
km
Sea
Height
m
Swell
Dir
 
Speed
knots
Gust
knots
hPa Trend Height
m
Period
s
Dir
26/11:30pm 11.3 - - - 1023.4 - 0.8 - - - - - - -
26/11:00pm 11.3 - - - 1023.6 - 0.4 - - - - - - -
26/10:30pm 11.2 - - - 1023.8 - 0.2 - - - - - - -
26/10:00pm 11.3 - - - 1023.9 - 0.2 - - - - - - -
26/09:30pm 11.4 - - - 1024.3 - 0.2 - - - - - - -
26/09:00pm 11.4 - - - 1024.5 - 0.0 - - - - - - -
26/08:30pm 11.3 - - - 1024.3 - 0.0 - - - - - - -
26/08:00pm 11.3 - - - 1024.1 - 0.0 - - - - - - -
26/07:30pm 11.4 - - - 1024.1 - 0.0 - - - - - - -
26/07:00pm 11.3 - - - 1024.1 - 0.0 - - - - - - -
26/06:30pm 11.4 - - - 1024.1 - 0.0 - - - - - - -
26/06:00pm 11.4 - - - 1024.2 - 0.0 - - - - - - -
26/05:30pm 11.4 - - - 1024.0 - 0.0 - - - - - - -
26/05:00pm 11.4 - - - 1024.0 - 0.0 - - - - - - -
26/04:30pm 11.5 - - - 1023.9 - 0.0 - - - - - - -
26/04:00pm 11.5 - - - 1023.6 - 0.0 - - - - - - -
26/03:30pm 11.5 - - - 1024.1 - 0.0 - - - - - - -
26/03:00pm 11.6 - - - 1024.3 - 0.0 - - - - - - -
26/02:30pm 11.7 - - - 1024.5 - 0.0 - - - - - - -
26/02:00pm 11.5 - - - 1024.9 - 0.0 - - - - - - -
26/01:30pm 11.5 - - - 1025.1 - 0.0 - - - - - - -
26/01:00pm 11.5 - - - 1025.4 - 0.0 - - - - - - -
26/12:30pm 11.5 - - - 1025.7 - 0.0 - - - - - - -
26/12:00pm 11.8 - - - 1026.4 - 0.0 - - - - - - -
26/11:30am 13.0 - - - 1026.5 - 0.0 - - - - - - -
26/11:00am 12.1 - - - 1027.2 - 0.0 - - - - - - -
26/10:30am 12.4 - - - 1027.2 - 0.0 - - - - - - -
26/10:00am 12.2 - - - 1027.5 - 0.0 - - - - - - -
26/09:30am 12.3 - - - 1027.5 - 0.0 - - - - - - -
26/09:00am 12.3 - - - 1027.6 - 0.0 - - - - - - -
26/08:30am 12.2 - - - 1027.5 - 0.0 - - - - - - -
26/08:00am 12.0 - - - 1027.7 - 0.0 - - - - - - -
26/07:30am 11.7 - - - 1027.5 - 0.0 - - - - - - -
26/07:00am 11.1 - - - 1027.3 - 0.0 - - - - - - -
26/06:30am 11.0 - - - 1027.2 - 0.0 - - - - - - -
26/06:00am 10.9 - - - 1027.2 - 0.0 - - - - - - -
26/05:30am 10.7 - - - 1026.9 - 0.0 - - - - - - -
26/05:00am 10.5 - - - 1027.1 - 0.0 - - - - - - -
26/04:30am 10.5 - - - 1027.1 - 0.0 - - - - - - -
26/04:00am 10.5 - - - 1027.3 - 0.0 - - - - - - -
26/03:30am 10.5 - - - 1027.3 - 0.0 - - - - - - -
26/03:00am 10.4 - - - 1027.6 - 0.0 - - - - - - -
26/02:30am 10.6 - - - 1027.6 - 0.0 - - - - - - -
26/02:00am 10.5 - - - 1028.0 - 0.0 - - - - - - -
26/01:30am 10.5 - - - 1028.2 - 0.0 - - - - - - -
26/01:00am 10.5 - - - 1028.3 - 0.0 - - - - - - -
26/12:30am 10.7 - - - 1028.4 - 0.0 - - - - - - -
26/12:00am 10.8 - - - 1028.5 - 0.0 - - - - - - -
 
Date/Time
EST
Temp

°C
Wind Pressure Rain
since 9am
mm
Weather Cloud Vis
km
Sea
Height
m
Swell
Dir
 
Speed
knots
Gust
knots
hPa Trend Height
m
Period
s
Dir
25/11:30pm 11.0 - - - 1028.6 - 0.0 - - - - - - -
25/11:00pm 11.1 - - - 1028.6 - 0.0 - - - - - - -
25/10:30pm 11.0 - - - 1028.8 - 0.0 - - - - - - -
25/10:00pm 10.7 - - - 1028.7 - 0.0 - - - - - - -
25/09:30pm 10.7 - - - 1028.8 - 0.0 - - - - - - -
25/09:00pm 10.7 - - - 1028.8 - 0.0 - - - - - - -
25/08:30pm 10.8 - - - 1028.5 - 0.0 - - - - - - -
25/08:00pm 10.7 - - - 1028.4 - 0.0 - - - - - - -
25/07:30pm 10.8 - - - 1028.2 - 0.0 - - - - - - -
25/07:00pm 10.7 - - - 1028.0 - 0.0 - - - - - - -
25/06:30pm 10.4 - - - 1027.8 - 0.0 - - - - - - -
25/06:00pm 10.5 - - - 1027.7 - 0.0 - - - - - - -

Other Formats:

Comma delimited format used in spreadsheet applications
http://www.bom.gov.au/fwo/IDT60701/IDT60701.94893.axf

JavaScript Object Notation format (JSON) in row-major order
http://www.bom.gov.au/fwo/IDT60701/IDT60701.94893.json